| time (UTC) | temp F | wind direction | speed MPH | gust MPH | rain 1hr in | rain 24hr in | rain mn in | humidity % | barometer mb |
| 20260505193045 | 52 | 0.0 | 0.0 | 0.00 | 1.24 | 0.05 | 88 | 1011.5 | |
| 20260505192042 | 52 | 0.0 | 0.0 | 0.00 | 1.24 | 0.05 | 87 | 1011.5 | |
| 20260505191039 | 53 | 0.0 | 0.0 | 0.00 | 1.24 | 0.05 | 86 | 1011.4 | |
| 20260505190034 | 53 | 0.0 | 0.0 | 0.00 | 1.24 | 0.05 | 86 | 1011.3 | |
| 20260505185033 | 53 | 315 | 0.0 | 2.0 | 0.00 | 1.24 | 0.05 | 85 | 1011.3 |
| 20260505184026 | 53 | 315 | 0.0 | 2.0 | 0.00 | 1.24 | 0.05 | 84 | 1011.3 |
| 20260505183022 | 53 | 0.0 | 1.0 | 0.00 | 1.24 | 0.05 | 84 | 1011.4 | |
| 20260505182018 | 53 | 135 | 0.0 | 2.0 | 0.00 | 1.24 | 0.05 | 84 | 1011.3 |
| 20260505181117 | 53 | 90 | 1.0 | 3.0 | 0.00 | 1.24 | 0.05 | 83 | 1011.4 |
| 20260505180111 | 53 | 120 | 0.0 | 2.0 | 0.00 | 1.24 | 0.05 | 83 | 1011.3 |
| 20260505175107 | 53 | 105 | 1.0 | 4.0 | 0.00 | 1.24 | 0.05 | 83 | 1011.2 |
| 20260505174104 | 54 | 23 | 0.0 | 2.0 | 0.00 | 1.24 | 0.05 | 83 | 1011.4 |
| 20260505173100 | 54 | 90 | 0.0 | 2.0 | 0.00 | 1.24 | 0.05 | 83 | 1011.5 |
| 20260505172056 | 54 | 72 | 0.0 | 3.0 | 0.00 | 1.24 | 0.05 | 82 | 1011.4 |
| 20260505171052 | 54 | 45 | 0.0 | 4.0 | 0.00 | 1.24 | 0.05 | 83 | 1011.5 |
| 20260505170050 | 54 | 95 | 1.0 | 5.0 | 0.00 | 1.24 | 0.05 | 83 | 1011.5 |
| 20260505165044 | 54 | 54 | 1.0 | 3.0 | 0.00 | 1.24 | 0.05 | 83 | 1011.5 |
| 20260505164040 | 54 | 51 | 1.0 | 4.0 | 0.00 | 1.24 | 0.05 | 84 | 1011.6 |
| 20260505163037 | 54 | 38 | 1.0 | 4.0 | 0.00 | 1.25 | 0.05 | 84 | 1011.7 |
| 20260505162033 | 54 | 122 | 1.0 | 5.0 | 0.00 | 1.25 | 0.05 | 85 | 1011.7 |
| 20260505161030 | 54 | 135 | 1.0 | 2.0 | 0.00 | 1.26 | 0.05 | 85 | 1011.8 |
| 20260505153115 | 54 | 39 | 2.0 | 5.0 | 0.00 | 1.33 | 0.05 | 88 | 1011.8 |
| 20260505152111 | 54 | 34 | 2.0 | 5.0 | 0.00 | 1.38 | 0.05 | 87 | 1011.9 |
| 20260505151107 | 54 | 86 | 1.0 | 4.0 | 0.00 | 1.46 | 0.05 | 88 | 1012.0 |
| 20260505150105 | 54 | 75 | 1.0 | 4.0 | 0.00 | 1.59 | 0.05 | 89 | 1012.0 |
| 20260505125015 | 53 | 90 | 1.0 | 6.0 | 0.00 | 1.64 | 0.05 | 99 | 1012.7 |
| 20260505124112 | 53 | 67 | 2.0 | 4.0 | 0.00 | 1.64 | 0.05 | 99 | 1012.7 |
| 20260505123110 | 52 | 50 | 2.0 | 5.0 | 0.00 | 1.64 | 0.05 | 99 | 1012.8 |
| 20260505122105 | 52 | 101 | 1.0 | 8.0 | 0.00 | 1.64 | 0.05 | 99 | 1012.9 |
| 20260505121102 | 52 | 210 | 2.0 | 5.0 | 0.00 | 1.64 | 0.05 | 99 | 1012.8 |
| 20260505120057 | 52 | 55 | 1.0 | 5.0 | 0.00 | 1.64 | 0.05 | 99 | 1012.9 |
| 20260505115054 | 52 | 352 | 1.0 | 4.0 | 0.00 | 1.64 | 0.05 | 99 | 1013.0 |
| 20260505114050 | 51 | 31 | 1.0 | 5.0 | 0.00 | 1.64 | 0.05 | 99 | 1013.0 |
| 20260505113046 | 51 | 65 | 2.0 | 7.0 | 0.00 | 1.64 | 0.05 | 99 | 1013.2 |
| 20260505112042 | 51 | 208 | 2.0 | 8.0 | 0.00 | 1.64 | 0.05 | 99 | 1013.1 |
| 20260505111040 | 51 | 84 | 1.0 | 6.0 | 0.00 | 1.64 | 0.05 | 99 | 1013.2 |
| 20260505102022 | 50 | 158 | 2.0 | 10.0 | 0.00 | 1.64 | 0.05 | 99 | 1013.4 |
| 20260505101018 | 50 | 72 | 2.0 | 8.0 | 0.00 | 1.64 | 0.05 | 99 | 1013.4 |
| 20260505100133 | 50 | 49 | 3.0 | 7.0 | 0.00 | 1.64 | 0.05 | 99 | 1013.4 |
| 20260505095111 | 51 | 77 | 1.0 | 5.0 | 0.00 | 1.64 | 0.05 | 99 | 1013.5 |
| 20260505094108 | 51 | 122 | 1.0 | 4.0 | 0.00 | 1.64 | 0.05 | 99 | 1013.4 |
| 20260505093102 | 51 | 348 | 2.0 | 5.0 | 0.00 | 1.64 | 0.05 | 99 | 1013.4 |
| 20260505092059 | 51 | 58 | 1.0 | 5.0 | 0.00 | 1.64 | 0.05 | 99 | 1013.4 |
| 20260505091054 | 50 | 45 | 2.0 | 4.0 | 0.00 | 1.64 | 0.05 | 99 | 1013.3 |
| 20260505090050 | 50 | 129 | 2.0 | 7.0 | 0.00 | 1.64 | 0.05 | 99 | 1013.5 |
| 20260505085047 | 50 | 92 | 2.0 | 5.0 | 0.00 | 1.64 | 0.05 | 99 | 1013.4 |
| 20260505084043 | 50 | 89 | 2.0 | 4.0 | 0.00 | 1.64 | 0.05 | 99 | 1013.5 |
| 20260505083040 | 50 | 69 | 1.0 | 3.0 | 0.00 | 1.64 | 0.05 | 99 | 1013.3 |
| 20260505082100 | 50 | 77 | 1.0 | 4.0 | 0.00 | 1.64 | 0.05 | 99 | 1013.4 |
| 20260505081032 | 50 | 36 | 3.0 | 8.0 | 0.00 | 1.64 | 0.05 | 99 | 1013.5 |
| 20260505080029 | 50 | 353 | 0.0 | 6.0 | 0.00 | 1.64 | 0.05 | 99 | 1013.5 |
| 20260505075047 | 50 | 7 | 1.0 | 5.0 | 0.00 | 1.64 | 0.05 | 99 | 1013.5 |
| 20260505074023 | 50 | 94 | 2.0 | 6.0 | 0.00 | 1.64 | 0.05 | 99 | 1013.5 |
| 20260505073019 | 50 | 357 | 2.0 | 8.0 | 0.00 | 1.64 | 0.05 | 99 | 1013.4 |
| 20260505072114 | 51 | 315 | 1.0 | 3.0 | 0.00 | 1.64 | 0.05 | 99 | 1013.4 |
| 20260505071111 | 50 | 49 | 4.0 | 8.0 | 0.00 | 1.64 | 0.05 | 99 | 1013.3 |
| 20260505070128 | 51 | 33 | 2.0 | 5.0 | 0.00 | 1.64 | 0.05 | 99 | 1013.4 |
| 20260505065125 | 50 | 68 | 1.0 | 5.0 | 0.00 | 1.64 | 0.05 | 99 | 1013.4 |
| 20260505064100 | 50 | 117 | 2.0 | 6.0 | 0.00 | 1.64 | 0.05 | 99 | 1013.5 |
| 20260505063056 | 51 | 25 | 1.0 | 5.0 | 0.00 | 1.64 | 0.05 | 99 | 1013.5 |
| 20260505062052 | 51 | 6 | 1.0 | 4.0 | 0.00 | 1.64 | 0.05 | 99 | 1013.5 |
| 20260505061048 | 51 | 356 | 1.0 | 7.0 | 0.00 | 1.64 | 0.05 | 99 | 1013.5 |
| 20260505060044 | 51 | 2 | 2.0 | 5.0 | 0.00 | 1.64 | 0.05 | 99 | 1013.5 |
| 20260505055042 | 51 | 314 | 1.0 | 4.0 | 0.00 | 1.64 | 0.05 | 99 | 1013.5 |
| 20260505054039 | 51 | 79 | 1.0 | 5.0 | 0.00 | 1.64 | 0.05 | 99 | 1013.3 |
| 20260505053034 | 51 | 358 | 1.0 | 5.0 | 0.00 | 1.64 | 0.05 | 99 | 1013.3 |
| 20260505052030 | 51 | 360 | 1.0 | 4.0 | 0.00 | 1.64 | 0.05 | 99 | 1013.3 |
| 20260505051026 | 51 | 90 | 1.0 | 4.0 | 0.00 | 1.64 | 0.05 | 99 | 1013.3 |
| 20260505041105 | 52 | 338 | 0.0 | 3.0 | 0.00 | 1.64 | 0.05 | 99 | 1013.2 |
| 20260505040100 | 52 | 315 | 0.0 | 3.0 | 0.00 | 1.64 | 0.05 | 99 | 1013.2 |
| 20260505035058 | 52 | 135 | 0.0 | 4.0 | 0.00 | 1.64 | 0.05 | 99 | 1013.2 |
| 20260505034053 | 53 | 99 | 1.0 | 4.0 | 0.00 | 1.64 | 0.05 | 99 | 1013.3 |
| 20260505033049 | 52 | 86 | 1.0 | 4.0 | 0.00 | 1.65 | 0.05 | 99 | 1013.3 |
| 20260505032041 | 53 | 237 | 1.0 | 5.0 | 0.00 | 1.65 | 0.05 | 99 | 1013.3 |
| 20260505031038 | 53 | 320 | 1.0 | 4.0 | 0.00 | 1.65 | 0.05 | 99 | 1013.3 |
| 20260505030035 | 53 | 28 | 1.0 | 4.0 | 0.00 | 1.65 | 0.05 | 99 | 1013.3 |
| 20260505025031 | 53 | 333 | 1.0 | 5.0 | 0.00 | 1.65 | 0.05 | 99 | 1013.5 |
| 20260505024026 | 53 | 345 | 1.0 | 4.0 | 0.00 | 1.65 | 0.05 | 99 | 1013.5 |
| 20260505023043 | 53 | 103 | 1.0 | 4.0 | 0.00 | 1.65 | 0.05 | 99 | 1013.6 |
| 20260505022019 | 53 | 23 | 1.0 | 4.0 | 0.00 | 1.65 | 0.05 | 99 | 1013.6 |
| 20260505021016 | 53 | 45 | 0.0 | 2.0 | 0.00 | 1.65 | 0.05 | 99 | 1013.6 |
| 20260505020111 | 54 | 349 | 1.0 | 6.0 | 0.00 | 1.65 | 0.05 | 99 | 1013.4 |
| 20260505015108 | 53 | 73 | 2.0 | 7.0 | 0.00 | 1.65 | 0.05 | 99 | 1013.5 |
| 20260505014106 | 54 | 303 | 1.0 | 4.0 | 0.00 | 1.65 | 0.05 | 99 | 1013.5 |
| 20260505013101 | 54 | 335 | 3.0 | 9.0 | 0.00 | 1.65 | 0.05 | 99 | 1013.6 |
| 20260505012058 | 54 | 23 | 1.0 | 6.0 | 0.00 | 1.65 | 0.05 | 99 | 1013.7 |
| 20260505011115 | 54 | 3 | 2.0 | 7.0 | 0.00 | 1.65 | 0.05 | 99 | 1013.7 |
| 20260505010050 | 54 | 317 | 1.0 | 7.0 | 0.01 | 1.65 | 0.05 | 99 | 1013.8 |
| 20260505005047 | 55 | 326 | 1.0 | 4.0 | 0.01 | 1.65 | 0.05 | 99 | 1013.9 |
| 20260505004104 | 55 | 335 | 1.0 | 6.0 | 0.01 | 1.65 | 0.05 | 99 | 1014.0 |
| 20260505003038 | 55 | 274 | 1.0 | 7.0 | 0.01 | 1.65 | 0.05 | 99 | 1013.8 |
| 20260505002035 | 55 | 29 | 1.0 | 4.0 | 0.01 | 1.65 | 0.05 | 99 | 1013.9 |
| 20260505001030 | 55 | 318 | 1.0 | 5.0 | 0.01 | 1.65 | 0.05 | 99 | 1014.0 |
| 20260505000047 | 55 | 293 | 1.0 | 3.0 | 0.00 | 1.64 | 0.04 | 99 | 1014.0 |
| 20260504235023 | 55 | 113 | 1.0 | 4.0 | 0.00 | 1.64 | 0.04 | 99 | 1014.0 |
| 20260504234039 | 55 | 305 | 1.0 | 8.0 | 0.00 | 1.64 | 0.04 | 99 | 1014.1 |
| 20260504233016 | 56 | 78 | 1.0 | 4.0 | 0.00 | 1.64 | 0.04 | 99 | 1014.1 |
| 20260504232112 | 56 | 338 | 0.0 | 3.0 | 0.00 | 1.64 | 0.04 | 99 | 1014.0 |
| 20260504231106 | 56 | 318 | 2.0 | 7.0 | 0.01 | 1.64 | 0.04 | 99 | 1014.2 |
| 20260504225058 | 56 | 45 | 0.0 | 4.0 | 0.05 | 1.64 | 0.04 | 99 | 1014.3 |
| 20260504224055 | 56 | 23 | 0.0 | 2.0 | 0.08 | 1.64 | 0.04 | 99 | 1014.4 |
| 20260504223052 | 56 | 0.0 | 2.0 | 0.12 | 1.64 | 0.04 | 99 | 1014.4 | |
| 20260504222049 | 56 | 0.0 | 0.0 | 0.15 | 1.64 | 0.04 | 99 | 1014.5 | |
| 20260504221044 | 56 | 293 | 0.0 | 2.0 | 0.19 | 1.63 | 0.02 | 99 | 1014.6 |
| 20260504220040 | 56 | 293 | 0.0 | 2.0 | 0.19 | 1.62 | 0.01 | 99 | 1014.8 |
| 20260504215036 | 57 | 0.0 | 2.0 | 0.20 | 1.59 | 1.59 | 99 | 1014.9 | |
| 20260504214034 | 57 | 0.0 | 1.0 | 0.22 | 1.56 | 1.56 | 99 | 1015.0 | |
| 20260504213049 | 57 | 180 | 0.0 | 2.0 | 0.22 | 1.52 | 1.52 | 99 | 1015.0 |
| 20260504212025 | 57 | 0.0 | 2.0 | 0.26 | 1.49 | 1.49 | 99 | 1015.3 | |
| 20260504211101 | 57 | 0.0 | 0.0 | 0.33 | 1.44 | 1.44 | 99 | 1015.2 | |
| 20260504210018 | 57 | 0.0 | 1.0 | 0.50 | 1.43 | 1.43 | 99 | 1015.0 | |
| 20260504205116 | 57 | 315 | 0.0 | 2.0 | 0.57 | 1.39 | 1.39 | 99 | 1014.9 |
| 20260504204110 | 57 | 203 | 0.0 | 2.0 | 0.77 | 1.33 | 1.33 | 99 | 1015.2 |
| 20260504203107 | 58 | 338 | 0.0 | 2.0 | 0.89 | 1.30 | 1.30 | 99 | 1015.0 |
| 20260504202123 | 57 | 113 | 1.0 | 2.0 | 0.81 | 1.23 | 1.23 | 99 | 1015.0 |
| 20260504201100 | 58 | 338 | 1.0 | 4.0 | 0.70 | 1.11 | 1.11 | 99 | 1015.1 |
| 20260504200056 | 58 | 317 | 1.0 | 3.0 | 0.52 | 0.93 | 0.93 | 99 | 1014.8 |
| 20260504195053 | 58 | 162 | 2.0 | 6.0 | 0.41 | 0.83 | 0.83 | 99 | 1014.6 |
| 20260504194048 | 59 | 173 | 2.0 | 6.0 | 0.15 | 0.57 | 0.57 | 99 | 1014.6 |